AB4PS Weather Reports


Display with metric or nautical units.
time (UTC)temp
F
wind
direction
speed
MPH
gust
MPH
rain 1hr
in
rain 24hr
in
rain mn
in
humidity
%
barometer
mb
20260503184529 73 193 3.0 4.0 0.00 0.00 0.00 29 1019.1
20260503184026 72 254 2.0 2.0 0.00 0.00 0.00 31 1019.1
20260503183522 71 226 3.0 3.0 0.00 0.00 0.00 33 1019.1
20260503183019 72 247 3.0 3.0 0.00 0.00 0.00 31 1019.2
20260503182518 72 261 3.0 6.0 0.00 0.00 0.00 28 1019.1
20260503182015 72 213 1.0 1.0 0.00 0.00 0.00 32 1019.4
20260503181512 71 215 3.0 3.0 0.00 0.00 0.00 32 1019.4
20260503181008 70 256 2.0 2.0 0.00 0.00 0.00 33 1019.3
20260503180506 70 226 2.0 2.0 0.00 0.00 0.00 34 1019.5
20260503180003 71 195 1.0 1.0 0.00 0.00 0.00 34 1019.5
20260503175501 70 132 2.0 3.0 0.00 0.00 0.00 33 1019.6
20260503174957 70 325 2.0 3.0 0.00 0.00 0.00 35 1019.6
20260503174455 70 254 3.0 3.0 0.00 0.00 0.00 35 1019.7
20260503173950 70 171 1.0 2.0 0.00 0.00 0.00 34 1019.6
20260503173446 71 209 1.0 1.0 0.00 0.00 0.00 33 1019.7
20260503172943 71 265 1.0 1.0 0.00 0.00 0.00 33 1019.7
20260503172440 70 1 1.0 1.0 0.00 0.00 0.00 36 1019.8
20260503171937 69 279 2.0 2.0 0.00 0.00 0.00 33 1019.8
20260503171433 69 344 2.0 2.0 0.00 0.00 0.00 33 1020.0
20260503170931 69 232 2.0 3.0 0.00 0.00 0.00 34 1020.0
20260503170427 68 128 2.0 2.0 0.00 0.00 0.00 35 1020.3
20260503150819 65 247 2.0 2.0 0.00 0.00 0.00 39 1020.9
20260503150315 64 34 0.0 0.0 0.00 0.00 0.00 40 1021.1
20260503140240 60 48 2.0 2.0 0.00 0.00 0.00 50 1020.6
20260503131209 55 165 2.0 3.0 0.00 0.00 0.00 63 1020.5
20260503130707 54 123 1.0 2.0 0.00 0.00 0.00 64 1020.5
20260503130204 53 134 1.0 2.0 0.00 0.00 0.00 65 1020.4
20260503120130 48 25 1.0 1.0 0.00 0.00 0.00 95 1020.0
20260503110557 48 146 0.0 0.0 0.00 0.00 0.00 98 1019.3
20260503090444 46 146 0.0 0.0 0.00 0.00 0.00 97 1017.8
20260503081410 46 146 0.0 0.0 0.00 0.00 0.00 97 1017.3
20260503080908 46 146 0.0 0.0 0.00 0.00 0.00 97 1017.1
20260503080404 47 146 0.0 0.0 0.00 0.00 0.00 97 1017.3
20260503072840 47 146 0.0 0.0 0.00 0.00 0.00 96 1017.2
20260503072337 47 146 0.0 0.0 0.00 0.00 0.00 96 1016.9
20260503071834 47 146 0.0 0.0 0.00 0.00 0.00 96 1016.9
20260503071331 47 146 0.0 0.0 0.00 0.00 0.00 96 1017.0
20260503070827 47 146 0.0 0.0 0.00 0.00 0.00 96 1016.8
20260503070326 47 146 0.0 0.0 0.00 0.00 0.00 96 1016.9
20260503060250 49 146 0.0 0.0 0.00 0.00 0.00 94 1016.6
20260503054737 49 146 0.0 0.0 0.00 0.00 0.00 93 1016.5
20260503054234 50 146 0.0 0.0 0.00 0.00 0.00 93 1016.6
20260503053732 50 146 0.0 0.0 0.00 0.00 0.00 93 1016.3
20260503053231 50 146 0.0 0.0 0.00 0.00 0.00 92 1016.4
20260503052726 51 146 0.0 0.0 0.00 0.00 0.00 92 1016.4
20260503052223 51 146 0.0 0.0 0.00 0.00 0.00 90 1016.2
20260503051718 51 146 0.0 0.0 0.00 0.00 0.00 89 1016.3
20260503051217 52 146 0.0 0.0 0.00 0.00 0.00 88 1016.5
20260503050713 52 146 0.0 0.0 0.00 0.00 0.00 88 1016.3
20260503050209 53 146 0.0 0.0 0.00 0.00 0.00 88 1016.1
20260503045707 53 146 0.0 0.0 0.00 0.00 0.00 87 1016.3
20260503045204 53 146 0.0 0.0 0.00 0.00 0.00 86 1016.2
20260503044700 54 146 0.0 0.0 0.00 0.00 0.00 86 1016.3
20260503044158 54 146 0.0 0.0 0.00 0.00 0.00 85 1016.4
20260503043654 54 146 0.0 0.0 0.00 0.00 0.00 85 1016.3
20260503043152 54 146 0.0 0.0 0.00 0.00 0.00 86 1016.4
20260503042648 54 146 0.0 0.0 0.00 0.00 0.00 88 1016.2
20260503042144 54 146 0.0 0.0 0.00 0.00 0.00 87 1016.3
20260503041641 54 146 0.0 0.0 0.00 0.00 0.00 87 1016.3
20260503041139 54 146 0.0 0.0 0.00 0.00 0.00 86 1016.3
20260503040636 54 146 0.0 0.0 0.00 0.00 0.00 87 1016.3
20260503040133 54 146 0.0 0.0 0.00 0.00 0.00 88 1016.4
20260503035630 54 146 0.0 0.0 0.00 0.39 0.39 87 1016.1
20260503035128 54 146 1.0 1.0 0.00 0.39 0.39 88 1016.0
20260503034625 54 146 0.0 0.0 0.00 0.39 0.39 87 1015.9
20260503034122 54 146 0.0 1.0 0.00 0.39 0.39 87 1016.3
20260503033619 54 146 1.0 1.0 0.00 0.39 0.39 87 1016.4
20260503033117 54 146 0.0 0.0 0.00 0.39 0.39 87 1016.2
20260503032615 54 146 0.0 0.0 0.00 0.39 0.39 88 1016.2
20260503032113 54 146 0.0 0.0 0.00 0.39 0.39 86 1016.2
20260503031610 54 146 0.0 0.0 0.00 0.39 0.39 86 1016.1
20260503031108 53 146 0.0 0.0 0.00 0.39 0.39 87 1016.1
20260503030603 53 146 0.0 0.0 0.00 0.39 0.39 87 1016.0
20260503030100 53 146 0.0 0.0 0.00 0.39 0.39 88 1016.0
20260503025557 53 146 0.0 0.0 0.00 0.39 0.39 89 1015.8
20260503025055 53 146 0.0 0.0 0.00 0.39 0.39 90 1015.9
20260503024550 53 146 0.0 0.0 0.00 0.39 0.39 91 1015.8
20260503024048 52 146 0.0 0.0 0.00 0.39 0.39 90 1015.3
20260503023544 52 146 0.0 0.0 0.00 0.39 0.39 90 1015.4
20260503023042 53 146 0.0 0.0 0.00 0.39 0.39 90 1015.3
20260503022538 53 146 0.0 0.0 0.00 0.39 0.39 90 1015.1
20260503022033 53 146 0.0 0.0 0.00 0.39 0.39 89 1014.9
20260503021530 53 146 0.0 0.0 0.00 0.39 0.39 90 1015.0
20260503021027 53 146 0.0 0.0 0.00 0.39 0.39 90 1014.9
20260503020524 52 146 0.0 0.0 0.00 0.39 0.39 90 1014.8
20260503020021 52 146 0.0 0.0 0.00 0.39 0.39 90 1014.8
20260503015518 52 146 0.0 0.0 0.00 0.39 0.39 90 1014.6
20260503015015 52 146 0.0 0.0 0.00 0.39 0.39 90 1014.7
20260503014511 52 146 0.0 0.0 0.00 0.39 0.39 90 1014.6
20260503014009 51 146 0.0 0.0 0.00 0.39 0.39 91 1014.4
20260503013506 51 146 0.0 0.0 0.00 0.39 0.39 91 1014.5
20260503013003 51 146 0.0 0.0 0.00 0.39 0.39 90 1014.3
20260503012501 51 146 0.0 0.0 0.00 0.39 0.39 90 1014.2
20260503011956 51 146 0.0 0.0 0.00 0.39 0.39 91 1014.2
20260503011454 51 146 0.0 0.0 0.00 0.39 0.39 90 1014.1
20260503010951 51 146 0.0 0.0 0.00 0.39 0.39 89 1014.3
20260503010447 51 146 0.0 0.0 0.00 0.39 0.39 89 1014.2
20260503005944 51 146 0.0 0.0 0.00 0.39 0.39 89 1013.8
20260503005442 51 146 0.0 0.0 0.00 0.39 0.39 89 1013.9
20260503004938 51 146 0.0 0.0 0.00 0.39 0.39 88 1013.8
20260503004435 52 146 0.0 0.0 0.00 0.39 0.39 87 1013.8
20260503003933 52 146 0.0 0.0 0.00 0.39 0.39 87 1013.9
20260503003429 52 146 0.0 0.0 0.00 0.39 0.39 86 1013.8
20260503002927 53 146 0.0 0.0 0.00 0.39 0.39 85 1013.5
20260503002424 53 146 0.0 0.0 0.00 0.39 0.39 85 1013.6
20260503001920 54 146 0.0 0.0 0.00 0.39 0.39 83 1013.6
20260503001416 54 146 0.0 0.0 0.00 0.39 0.39 81 1013.5
20260503000914 55 146 0.0 0.0 0.00 0.39 0.39 79 1013.5
20260503000411 55 146 0.0 0.0 0.00 0.39 0.39 77 1013.3
20260502235908 56 146 0.0 0.0 0.00 0.39 0.39 77 1013.4
20260502235405 56 146 0.0 0.0 0.00 0.39 0.39 75 1013.5
20260502234903 57 146 0.0 0.0 0.00 0.39 0.39 75 1013.0
20260502234359 57 146 1.0 1.0 0.00 0.39 0.39 73 1013.1
20260502233856 57 146 0.0 0.0 0.00 0.39 0.39 73 1013.1
20260502233352 58 145 1.0 1.0 0.00 0.39 0.39 70 1012.7
20260502232849 58 145 1.0 1.0 0.00 0.39 0.39 69 1012.8
20260502232345 59 141 0.0 1.0 0.00 0.39 0.39 69 1012.9
20260502231842 59 150 1.0 1.0 0.00 0.39 0.39 67 1012.8
20260502231340 59 340 1.0 1.0 0.00 0.39 0.39 67 1012.7
20260502230838 59 165 2.0 2.0 0.00 0.39 0.39 67 1012.8
20260502230336 60 130 0.0 0.0 0.00 0.39 0.39 66 1012.7
20260502225832 59 137 1.0 1.0 0.00 0.39 0.39 68 1012.8
20260502225329 59 131 1.0 1.0 0.00 0.39 0.39 67 1012.8
20260502224826 60 146 2.0 2.0 0.00 0.39 0.39 66 1012.8
20260502224322 60 4 1.0 1.0 0.00 0.39 0.39 65 1013.0
20260502223820 60 52 1.0 1.0 0.00 0.39 0.39 67 1012.7
20260502223317 59 74 0.0 0.0 0.00 0.39 0.39 69 1012.7
20260502222815 59 149 1.0 1.0 0.00 0.39 0.39 70 1012.8
20260502222312 59 154 2.0 2.0 0.00 0.39 0.39 68 1012.8
20260502221808 59 25 1.0 2.0 0.00 0.39 0.39 69 1012.8
20260502221304 59 296 1.0 1.0 0.00 0.39 0.39 68 1012.7
20260502220801 59 24 2.0 2.0 0.00 0.39 0.39 69 1012.7
20260502220257 59 36 1.0 1.0 0.00 0.39 0.39 70 1012.8
20260502215754 59 44 3.0 4.0 0.00 0.39 0.39 68 1012.9
20260502215251 59 3 0.0 0.0 0.00 0.39 0.39 69 1012.8
20260502214748 58 345 1.0 1.0 0.00 0.39 0.39 71 1012.7
20260502214245 58 69 1.0 1.0 0.00 0.39 0.39 68 1012.7
20260502213742 58 152 1.0 1.0 0.00 0.39 0.39 70 1012.7
20260502213239 58 346 1.0 1.0 0.00 0.39 0.39 68 1012.5
20260502212738 58 40 1.0 1.0 0.00 0.39 0.39 70 1012.4
20260502212236 58 162 2.0 2.0 0.00 0.39 0.39 68 1012.4
20260502211732 58 24 1.0 2.0 0.00 0.39 0.39 69 1012.3
20260502211229 58 24 1.0 1.0 0.00 0.39 0.39 69 1012.2
20260502210726 58 18 2.0 3.0 0.00 0.39 0.39 68 1012.2
20260502210223 59 151 2.0 2.0 0.00 0.39 0.39 68 1012.5
20260502205720 59 4 4.0 6.0 0.00 0.39 0.39 67 1012.6
20260502205216 59 199 2.0 2.0 0.00 0.39 0.39 67 1012.5
20260502204714 59 27 1.0 1.0 0.00 0.39 0.39 66 1012.6
20260502204211 59 28 2.0 2.0 0.00 0.39 0.39 67 1012.6
20260502203708 59 343 4.0 6.0 0.00 0.39 0.39 66 1012.6
20260502203206 59 17 4.0 6.0 0.00 0.39 0.39 66 1012.6
20260502202700 59 115 2.0 2.0 0.00 0.39 0.39 66 1012.4
20260502202159 59 129 4.0 4.0 0.00 0.39 0.39 68 1012.6
20260502201656 58 21 2.0 3.0 0.00 0.39 0.39 69 1012.4
20260502201152 57 70 1.0 1.0 0.00 0.39 0.39 70 1012.6
20260502200648 57 48 1.0 2.0 0.00 0.39 0.39 69 1012.6
20260502200144 57 359 2.0 3.0 0.00 0.39 0.39 72 1012.6
20260502195643 57 149 3.0 4.0 0.00 0.39 0.39 71 1012.8
20260502195139 57 128 2.0 3.0 0.00 0.39 0.39 72 1012.8
20260502194636 56 77 1.0 1.0 0.00 0.39 0.39 75 1012.9
20260502194132 56 48 1.0 1.0 0.00 0.39 0.39 74 1013.2
20260502193629 56 51 1.0 1.0 0.00 0.39 0.39 73 1013.3
20260502193126 56 5 4.0 6.0 0.00 0.39 0.39 73 1013.1
20260502192621 56 26 2.0 2.0 0.00 0.39 0.39 73 1013.1
20260502192119 56 145 2.0 2.0 0.00 0.39 0.39 72 1013.1
20260502191616 56 281 4.0 6.0 0.00 0.39 0.39 73 1012.9
20260502191113 56 134 6.0 8.0 0.00 0.39 0.39 72 1013.2
20260502190611 56 32 2.0 2.0 0.00 0.39 0.39 75 1013.3
20260502190108 56 22 4.0 6.0 0.00 0.39 0.39 76 1013.2
20260502185602 56 11 5.0 7.0 0.00 0.39 0.39 74 1013.0
20260502185100 56 319 2.0 2.0 0.00 0.39 0.39 79 1013.3